Погода Сосуново

Погода Сосуново : погода сейчас, прогноз погоды и архив. Всё, что Вы хотите узнать о погоде Сосуново!

Хотите узнать прогноз погоды Сосуново? Тогда Вам сюда: Погода Сосуново

Поиск расширенной информации на нашем сайте:

Другие новости

Новости СМИ2

Главная страница сайта

Новости сайта

02.10.2013

Напоминаем, что на нашем новом сайте вы можете получить высокодетализированные прогнозы погоды по пунктам России, СНГ и мира (включающие важные для авиации метеовеличины, такие как направление и скорость ветра, видимость, явления погоды, количество и форма облачности, нижняя и верхняя граница облачности), а также ознакомиться с разнообразными материалами по авиационной метеорологии и подборкой полезных ссылок на эту тему.

Сайт Метеоцентр.Азия посвящён разработке технологий оптимизации авиаметеорологического обслуживания, включая проектирование и перспективное создание нескольких автоматизированных авиаметеорологических систем:
- система выпуска высокодетальных прогностических карт явлений погоды для нижнего воздушного пространства по России и ближнему зарубежью;
- система верификации прогнозов TAF (выпускаемых синоптиками официальных АМСГ РФ и ближнего зарубежья) и AUTOTAF (выпускаемых сайтом Метеоцентр.Азия) - выявление ошибок, онлайн-сопоставление с фактической погодой METAR, автоматическое внесение коррективов в прогнозы при резком отклонении фактической погоды от прогноза, подсчёт оправдываемости прогнозов по элементам и в целом;
- система обработки, анализа и отображения авиаметеорологической информации для применения провайдерами метеорологической информации.

Рекомендуем: Смотрите редуксин купить на сайте.

Погода Сосуново - сегодня

Время (UTC), дата Ветер
(°,м/с) 
Видим.   Явления Облачность Т
(°С)
Тd
(°С)
f(%) Тe
(°С)
Pmin
(гПа)
dP
(гПа)
Po
(мм)
O2
(г/м3)
Тmin Tmax R s Состояние
почвы
21 25.05.17 030 (СВ) 20000 м    10/10 300 м 
[St]
+5.1 +3.9 92 +5  1014  0.1  760  300  +3        влажная 
00 26.05.17 070 (В) 0500 м  туман  ?/?  
+5 +4 93 +5  1014  760  300           
03 26.05.17 120 (ЮВ) 0500 м  туман  ?/?  
+5.3 +3.6 89 +5  1013.9  -0.1  760  300           
06 26.05.17 160 (Ю) 20000 м  {туман}  ясно 
+8.6 +5.1 79 +8  1012.1  -1.8  759  296           
09 26.05.17 130 (ЮВ) 20000 м    ясно 
+7.1 +4.2 82 +8  1011.4  -0.7  758  297    +10.3       
12 26.05.17 350 (С) 0500 м  туман  ?/?  
+3 +2.1 94 +4  1012.1  0.7  759  302           
15 26.05.17 300 (СЗ) 20000 м  {туман}  ясно 
+1.3 +0.7 96 +2  1012.3  0.2  759  304           
18 26.05.17 230 (ЮЗ) 20000 м    ясно 
+1.6 +0.8 94 -1  1011.8  -0.4  759  304           
00 27.05.17 080 (В) 20000 м    8/0 верхняя 
[Cs]
+9.7 +3.8 67 +9  1011.8  0.1  759  295           
03 27.05.17 050 (СВ) 20000 м    8/0 верхняя 
[Cs]
+11.2 +4.4 63 +11  1011.7  -0.1  758  293           
06 27.05.17 120 (ЮВ) 20000 м    8/0 верхняя 
[Ci]
+11.6 +4.8 63 +12  1010.4  -1.2  758  292           
12 27.05.17 270 (З) 20000 м    5/0 верхняя 
[Ci fib]
+6.8 +4.4 85 +7  1010  757  297           
15 27.05.17 230 (ЮЗ) 20000 м    ясно 
+5.3 +3.9 91 +4  1009.1  -0.9  757  298           
18 27.05.17 240 (ЮЗ) 20000 м    6/0 средняя 
[Ac trans]
+4.6 +3 89 +3  1007.8  -1.3  756  299           
00 28.05.17 170 (Ю) 20000 м    8/8 600 м 
[Sc]
+10.8 +4.9 67 +12  1007.4  -0.3  755  292           
03 28.05.17 160 (Ю) 20000 м    4/3 1000 м верхняя 
[Cu hum|Ci fib]
+15.2 +5.4 52 +15  1005.4  -2  754  287           
06 28.05.17 180 (Ю) 20000 м    3/3 1000 м 
[Cu hum]
+11.4 +6.2 70 +10  1004  -1.4  753  290           
12 28.05.17 230 (ЮЗ) 20000 м    ясно 
+6.7 +4.6 86 +8  1002.6  -0.2  752  295           
15 28.05.17 210 (ЮЗ) 20000 м    8/8 600 м 
[Sc]
+6.2 +5 92 +7  1002.1  -0.5  751  295           
18 28.05.17 280 (З) 0200 м  туман  ?/?  
+4.5 +3.7 95 +5  1001.3  -0.8  751  297           
00 29.05.17 240 (ЮЗ) 6-13{13}  20000 м  {туман}  5/3 600 м верхняя 
[Cu hum|Ci fib]
+22.6 +8.6 41 +23  1001.4  751  278           
03 29.05.17 230 (ЮЗ) 7{14}  20000 м    ясно 
+26.7 -2 15 +27  1000.1  -1.2  750  275           
06 29.05.17 240 (ЮЗ) 7-11{14}  20000 м    ясно 
+27.1 -7.5 10 +27  998.9  -1.2  749  275           
12 29.05.17 280 (З) 20000 м    ясно 
+19 -3.4 22 +19  1002  2.2  751  283           
15 29.05.17 240 (ЮЗ) 20000 м    ясно 
+13.9 -1.7 34 +14  1003.8  1.7  753  289           
Время (UTC), дата Ветер
(°,м/с) 
Видим.   Явления Облачность Т
(°С)
Тd
(°С)
f(%) Тe
(°С)
Pmin
(гПа)
dP
(гПа)
Po
(мм)
O2
(г/м3)
Тmin Tmax R s Состояние
почвы

Для получения пояснительной информации подведите курсор к названию столбца.

ПОГОДА Сосуново - архив

Всё, что Вы хотите узнать о погоде Сосуново - удобно и подробно!

Выберите нужную дату (начиная с 1 января 2015* года) и нажмите кнопку "Найти".
Будут отображены архивные сводки погоды по пункту Сосуново, начиная с указанной даты.


Отображать данные в формате CSV (для использования в таблицах Excel)


Внимание! Наш архив погоды предназначен исключительно для личного некоммерческого использования в познавательных целях. Если Вам необходимы официальные справки о состоянии погоды (для производственных, юридических, коммерческих и т.п. целей), обращайтесь в органы Росгидромета.

*Примечание: данная дата относится к архиву по метеостанциям СССР (Россия, СНГ, Балтия).
Архив по метеостанциям Зарубежной Европы и Азии (кроме Китая) хранится 10 дней, по другим регионам земного шара (Китай, Африка, Америка, Австралия, Океания) - 1 день.

Сосуново - район местоположения метеостанции


Название, широта, долгота, высота метеостанции:
Сосуново 46.5°ш. 138.3°д. 4 м над ур. моря [Российская Федерация]

Дополнительная информация

В oтличие oт бoльшинства пoгoдных сайтoв мы публикуем пoдрoбную метеoинфoрмацию в детальнoм прoфессиoнальнoм фoрмате.

Характеристики температуры и влажнoсти вoздуха измеряются на высoте 2 м в тени вдали oт зданий и деревьев.
Скoрoсть ветра измеряется на высoте 10 м (на урoвне рoста челoвека скoрoсть ветра ниже в 1.5-2 раза). Если метеoстанция нахoдится в гoрoде или в лесу, тo скoрoсть ветра занижена на 2-4 м/с пo сравнению с oткрытым местoм. Скoрoсть ветра над акватoриями крупных рек и oзёр, а также на вершинах хoлмoв на 2-5 м/с выше, чем в oбычных услoвиях.
Атмoсфернoе давление в разных тoчках местнoсти мoжет значительнo oтличаться oт давления на метеoстанции, в зависимoсти oт услoвий рельефа (при пoдъёме на 10 м давление пoнижается примернo на 1 мм рт.ст.).